GRBBeta
1 60237U 24128C   26102.37084003  .00002622  00000-0  18866-3 0  9995
2 60237  61.9888  87.0873 0048320 120.7800 239.8063 15.06123355 96353
Curium One
1 60242U 24128H   26102.36686464  .00005253  00000-0  31350-3 0  9995
2 60242  61.9780  78.7073 0048065 116.9602 243.6415 15.11488171 96509
ROBUSTA-3A
1 60243U 24128J   26102.89144605  .00004478  00000-0  27504-3 0  9994
2 60243  61.9858  78.9702 0048982 114.6752 245.9455 15.10678707 96555
CatSat
1 60246U 24125J   26102.82993721  .00033847  00000-0  54983-3 0  9991
2 60246  97.2174 314.7949 0025790  67.2302 293.1672 15.52256813 97239
HYPERVIEW-1G (RS66S)
1 61772U 24199AP  26102.80562571  .00061120  00000-0  66203-3 0  9993
2 61772  97.3015 339.8815 0009098 144.3790 215.8078 15.63322808124423
AO-123
1 61781U 24199AY  26102.85348856  .00005453  00000-0  16388-3 0  9992
2 61781  97.3103 332.1252 0014183 176.1458 183.9898 15.34732328123904
JINJUSat 1B
1 63210U 25052A   26102.45732838  .00011129  00000-0  36791-3 0  9990
2 63210  97.4078 359.2029 0002470 359.3486   0.7752 15.31528093 60037
NUSHSAT 1
1 63211U 25052B   26102.66104735  .00013498  00000-0  41865-3 0  9992
2 63211  97.4053 359.7713 0002444   7.0626 353.0650 15.33525277 60090
TEVEL2-4
1 63213U 25052D   26102.14379088  .00014476  00000-0  46496-3 0  9994
2 63213  97.3976 358.5171 0002817  33.2261 326.9157 15.32390087 59996
TEVEL2-5
1 63214U 25052E   26102.61473013  .00011472  00000-0  37064-3 0  9994
2 63214  97.3973 358.9527 0002717  31.1743 328.9660 15.32259496 60063
TEVEL2-6
1 63215U 25052F   26102.69075611  .00011488  00000-0  37158-3 0  9996
2 63215  97.3973 359.0139 0002844  30.5131 329.6276 15.32221669 60073
TEVEL2-1
1 63217U 25052H   26102.69874941  .00011256  00000-0  36936-3 0  9997
2 63217  97.3949 358.7192 0003324  38.1810 321.9667 15.31761868 60062
TEVEL2-3
1 63218U 25052J   26102.69546240  .00011316  00000-0  37083-3 0  9997
2 63218  97.3952 358.7309 0003420  38.7535 321.3951 15.31804654 60065
TEVEL2-2
1 63219U 25052K   26102.69933338  .00011310  00000-0  37107-3 0  9997
2 63219  97.3951 358.7212 0003385  38.8464 321.3020 15.31766469 60068
TEVEL2-9
1 63237U 25052AD  26102.66146615  .00010948  00000-0  37973-3 0  9995
2 63237  97.4015 358.1909 0007081  32.2796 327.8877 15.29954910 60002
TEVEL2-7
1 63238U 25052AE  26102.69089571  .00010143  00000-0  35468-3 0  9990
2 63238  97.4019 358.1614 0007247  31.9966 328.1713 15.29709338 60004
TEVEL2-8
1 63239U 25052AF  26102.43672598  .00010424  00000-0  36472-3 0  9998
2 63239  97.4016 357.8878 0007243  33.4192 326.7504 15.29683111 59969
HYDRA-W
1 63490U 25052BL  26102.67170514  .00563312  12215-3  20140-2 0  9991
2 63490  97.3802   5.8951 0005219 136.3076 223.8610 15.88804244 60534
HADES-ICM (SO-125)
1 63492U 25052BN  26102.69507883  .00185348  00000-0  14856-2 0  9990
2 63492  97.3858   4.6786 0004582  78.9999 281.1779 15.70457439 60452
SPIRONE
1 66657U 25274H   26102.32446873  .00001277  00000-0  12734-3 0  9995
2 66657  97.7451  32.5802 0010912 229.3207 130.7065 14.93279896 20397
K-HERO
1 66660U 25274L   26102.74978772  .00001943  00000-0  18876-3 0  9996
2 66660  97.7461  33.1109 0012626 232.3451 127.6624 14.93719358 20464
SNUGLITE-III DURI
1 66661U 25274M   26102.27101903  .00001449  00000-0  14192-3 0  9997
2 66661  97.7457  32.6568 0013340 235.7001 124.2956 14.93783861 20398
SilverSat
1 66909U 98067XV  26101.44198092  .00588813  15493-3  14302-2 0  9997
2 66909  51.6155 254.7584 0011918 300.1845  59.7981 15.95566356 20373
SAKHACUBE-CHOLBON
1 67290U 25313AU  26102.70975902  .00006133  00000-0  25815-3 0  9995
2 67290  97.3961 178.6164 0008767 218.2534 141.8082 15.23704209 16001
RS95S (QMR-KWT-2)
1 67291U 25313AV  26102.68120432  .00009060  00000-0  36974-3 0  9993
2 67291  97.3959 178.6531 0008658 216.8565 143.2079 15.24607979 16003
Ten-Koh2
1 68261U 25241B   26102.74633037  .00005835  00000-0  25815-3 0  9996
2 68261  51.6420 270.9389 0004925 285.7127  74.3307 15.23051686  4930
IO-86
1 40931U          25360.30710720  .00000000  00000-0  12800-3 0    00
2 40931   6.0006 332.5373 0012733 338.8432   8.1437 14.79075515    01
HADES-SA/SpinnyONE
1 71958C 26067D   26089.49758863 -.00009989  00000+0 -51655-3 0    00
2 71958  97.4320  49.1630 0007687  13.6276 327.6456 15.16316797    13
LILIUM-4                
1 71922C 26067AC  26089.50133053 -.00014632  00000+0 -74472-3 0    04
2 71922  97.4497  49.1617 0004341   5.9603 355.7042 15.16896692    16
PARUS-6U1                
1 71919C 26067Q   26089.49893470 -.00013781  00000+0 -70600-3 0    07
2 71919  97.4488  49.1589 0005235 359.3198 349.2677 15.16662579    15
JACK-002                
1 71927C 26067C   26089.49750414 -.00013014  00000+0 -63498-3 0    02
2 71927  97.4500  49.1567 0002681 143.8886 196.8842 15.18377566    18
SAL-E                   
1 71904C 26067L   26089.49846595 -.00007742  00000+0 -39877-3 0    08
2 71904  97.4412  49.1602 0006442   8.2554 337.7892 15.16462720    16
DISCO-2                 
1 71908C 26067U   26089.49955160 -.00011726  00000+0 -58129-3 0    09
2 71908  97.4541  49.1588 0000289 282.0588  69.8834 15.17826845    10
